Find NNS 30080

NORAD ID: 2119 Int'l Des: 1966-024 Owner: BUWEPS Country: US operational
LEOPOLAR

当前视图

正在加载3D地球...

About NNS 30080

NNS 30080 (NORAD 2119) is a satellite by BUWEPS of US. It operates in LEO, POLAR orbit

即将过境

Passes for default location (London). Set your location on the main map for personalized predictions.

高度历史

Loading altitude history...

两行轨道根数

1 2119U 66024A 26195.18777656 .00000098 00000-0 84756-4 0 9992
2 2119 89.6033 87.3431 0145235 325.5647 33.6171 13.75420447 18863
Epoch: Jul 14, 2026 • Age: 4 hours

当前状态

高度 1074.4 km
远地点 / 近地点 N/A
速度 7.27 km/s
星下点 4.37°N, 157.81°W
类型 other

Most Searched